[ hide orbit diagram ]
For accurate long-term ephemerides, please instead use our Horizons system.This orbit viewer was implemented using two-body methods, and hence should not be used for determining accurate long-term trajectories (over several years or decades) or planetary encounter circumstances.
Orbital Elements at Epoch 2459200.5 (2020-Dec-17.0) TDB
Reference: JPL 46 (heliocentric ecliptic J2000)
Element | Value | Uncertainty (1-sigma) | Units |
e | .1842525557473393 | 3.3235e-08 | |
a | 3.095923057134062 | 9.9993e-09 | au |
q | 2.525491321459996 | 1.0542e-07 | au |
i | 3.3074266395184 | 3.5014e-06 | deg |
node | 148.8886803037457 | 5.07e-05 | deg |
peri | 203.8220460187854 | 5.1333e-05 | deg |
M | 354.4930297097742 | 7.9388e-06 | deg |
tp | 2459230.936443067344 (2021-Jan-16.43644307) | 4.3919e-05 | TDB |
period | 1989.681971535507 5.45 | 9.6395e-06 2.639e-08 | d yr |
n | .1809334381826737 | 8.7657e-10 | deg/d |
Q | 3.666354792808129 | 1.1842e-08 | au |
|
| | Orbit Determination Parameters
Additional Information
|
[ show covariance matrix ]
Physical Parameter Table
Parameter |
Symbol |
Value |
Units |
Sigma |
Reference |
Notes |
absolute magnitude |
H |
10.75 |
|
n/a |
E2021B10 |
|
diameter |
diameter |
30.537 |
km |
0.756 |
urn:nasa:pds:neowise_diameters_albedos::2.0[mainbelt] (http://adsabs.harvard.edu/abs/2012ApJ...759L...8M) |
|
rotation period |
rot_per |
4.90 |
h |
n/a |
LCDB (Rev. 2020-October); Warner et al., 2009 |
Published Reference List: [Behrend, R. (2004) Observatoire de Geneve web site, http://obswww.unige.ch/~behrend/page_cou.html] [Menke, J. (2005) Minor Planet Bull. 32, 85-88.] [Durech, J.; Hanus, J.; Oszkiewsicz, D.; Vanco, R. (2016) Astron. Astrophys. 587, A48.] [Behrend, R. (2020) Observatoire de Geneve web site, http://obswww.unige.ch/~behrend/page_cou.html] |
geometric albedo |
albedo |
0.109 |
|
0.025 |
urn:nasa:pds:neowise_diameters_albedos::2.0[mainbelt] (http://adsabs.harvard.edu/abs/2012ApJ...759L...8M) |
|
|
885 Ulrike (A917 SV) Discovered 1917-Sep-23 by Belyavskij, S. at Simeis |
Independent discovery Sept. 26 by M. Wolf, Heidelberg, was announced first. |
Reference: DISCOVERY.DB | Last Updated: 2003-08-29 |
|
[ show close-approach data ]
Alternate Designations
A917 SV = 1933 QQ = 1934 XL = A906 SE |
|
|